カタログに戻る

SL-23 R/B

運用中HEO
NORAD 34112·ROCKET BODY·🇷🇺 Russia

打ち上げ Feb 26, 2009 から Baikonur Cosmodrome

Loading…

次のパス (今後24時間)

TLE

最新Source: Space-Track

元期: Sep 14, 2026, 17:11 UTC

1 34112U 09009B   26257.71625400  .00000004  00000-0  00000-0 0  9990
2 34112  34.5500 245.4583 6929417 203.4505  85.0605  2.20447673141339

AllMySatでSL-23 R/Bをリアルタイム追跡

Download on the App Store